This demonstration page uses our WeatherBlox Daily Observations layout. Learn more.

Left ArrowRight Arrow

40.97296, -117.73568

Hourly Observations for August 31, 2020

Temp ( °F °C ) Dew Point ( °F °C ) Humidity (%) Winds ( mph kmh ) Pressure ( in mb ) Visibility ( mi km ) Precip ( " mm )
12:56 am 00:56 Clear 56 13.3 9 -12.8 15 15 N 6 9 29.89 1012 10 16 0.00 0.00
1:56 am 01:56 Clear 50 10 9 -12.8 19 19 WSW 5 7 29.89 1012 10 16 0.00 0.00
2:56 am 02:56 Clear 50 10 11 -11.7 21 21 Calm 29.89 1012 10 16 0.00 0.00
3:56 am 03:56 Clear 47 8.3 13 -10.6 25 25 SE 6 9 29.91 1013 10 16 0.00 0.00
4:56 am 04:56 Clear 42 5.6 16 -8.9 35 35 S 7 11 29.92 1013 10 16 0.00 0.00
5:56 am 05:56 Clear 42 5.6 18 -7.8 38 38 SSE 7 11 29.93 1013 10 16 0.00 0.00
6:56 am 06:56 Sunny 43 6.1 18 -7.8 37 37 S 6 9 29.94 1014 10 16 0.00 0.00
7:56 am 07:56 Sunny 54 12.2 15 -9.4 21 21 S 5 7 29.94 1014 10 16 0.00 0.00
8:56 am 08:56 Sunny 66 18.9 11 -11.7 11 11 Calm 29.93 1014 10 16 0.00 0.00
9:56 am 09:56 Sunny 71 21.7 12 -11.1 10 10 NNW 6 9 29.90 1013 10 16 0.00 0.00
10:56 am 10:56 Sunny 74 23.3 12 -11.1 9 9 Calm 29.89 1012 10 16 0.00 0.00
11:56 am 11:56 Sunny 77 25 13 -10.6 9 9 NW 8 13 29.90 1013 10 16 0.00 0.00
12:56 pm 12:56 Sunny 82 27.8 16 -8.9 8 8 NW 10 17 29.87 1012 10 16 0.00 0.00
1:56 pm 13:56 Sunny 82 27.8 19 -7.2 9 9 NNW 8 13 29.87 1011 10 16 0.00 0.00
2:56 pm 14:56 Sunny 84 28.9 24 -4.4 11 11 NW 14 22 29.85 1011 10 16 0.00 0.00
3:56 pm 15:56 Sunny 85 29.4 30 -1.1 14 14 N 15 24 29.84 1010 10 16 0.00 0.00
4:56 pm 16:56 Sunny 84 28.9 34 1.1 17 17 NW 13 20 29.85 1011 10 16 0.00 0.00
5:56 pm 17:56 Mostly Sunny 83 28.3 37 2.8 19 19 N 16 26 29.85 1011 10 16 0.00 0.00
6:56 pm 18:56 Sunny 79 26.1 34 1.1 20 20 N 17 28 29.87 1012 10 16 0.00 0.00
7:56 pm 19:56 Clear 74 23.3 35 1.7 24 24 N 13 20 29.89 1012 10 16 0.00 0.00
8:56 pm 20:56 Clear 70 21.1 36 2.2 29 29 NE 15 24 29.92 1013 10 16 0.00 0.00
9:56 pm 21:56 Clear 67 19.4 36 2.2 32 32 NE 15 24 29.94 1014 10 16 0.00 0.00
10:56 pm 22:56 Clear 65 18.3 36 2.2 34 34 ENE 13 20 29.96 1015 10 16 0.00 0.00
11:56 pm 23:56 Clear 63 17.2 37 2.8 38 38 NE 10 17 29.98 1015 10 16 0.00 0.00

Powered by AerisWeather